Starlink 5334

operational
NORAD ID: 56509 Int'l Des: 2023-065 Owner: SPXS Country: US Constellation: starlink
LEOCIRCULAR

Starlink 5334について

説明を読み込み中...

リアルタイム位置

3D地球を読み込み中...

次回通過

高度履歴

Altitude vs Time

uPlot chart will show altitude changes over time

軌道要素

1 56509U 23065G 25353.85359179 .00000846 00000-0 77716-4 0 9996
2 56509 43.0041 284.2940 0001115 270.7678 89.3036 15.02537065144612
Epoch: Dec 19, 2025 • Age: 6 hours

現在のステータス

高度 562.0 km
速度 7.58 km/s
衛星直下点 -16.04°S, 0.69°W
打ち上げ日 May 14, 2023
運用期間 2.6 years
タイプ internet

技術仕様

分類 Payload
質量 305.00 kg
乾燥質量 290.00 kg
総質量 305.00 kg
長さ 0.20 m
直径 2.80 m
スパン 9.00 m
形状 Box + pan
製造者 SPXS
バスタイプ Starlink
フェーズステータス In Orbit
所有者/国 SPXS/US

大規模コンステレーション

Loading constellations...